This is the latest recevied weather packets stored in our database for station/object SR5NLK-1. If no packets are shown the sender has not sent any weather packets the latest 10 day(s).
| Time | Temp. | Humidity | Pressure | Rain* | Wind** | Luminosity | Snow |
|---|---|---|---|---|---|---|---|
| 1778149467 | 13.33° C | 82% | 952.9 hPa | 0 mm | - | - | - |
| 1778149348 | 13.33° C | 82% | 988.3 hPa | 0 mm | - | - | - |
| 1778149048 | 13.33° C | 82% | 981 hPa | 0 mm | - | - | - |
| 1778148748 | 13.33° C | 82% | 956 hPa | 0 mm | - | - | - |
| 1778148448 | 12.78° C | 82% | 963.9 hPa | 0 mm | - | - | - |
| 1778148148 | 12.78° C | 81% | 937 hPa | 0 mm | - | - | - |
| 1778147848 | 12.78° C | 81% | 1026 hPa | 0 mm | - | - | - |
| 1778147548 | 13.33° C | 80% | 1004.5 hPa | 0 mm | - | - | - |
| 1778147487 | 13.33° C | 80% | 999.4 hPa | 0 mm | - | - | - |
| 1778147464 | 13.33° C | 79% | 982.7 hPa | 0 mm | - | - | - |
| 1778147248 | 13.33° C | 79% | 982.7 hPa | 0 mm | - | - | - |
| 1778146948 | 13.89° C | 79% | 1042.3 hPa | 0 mm | - | - | - |
| 1778146648 | 13.89° C | 78% | 1048.2 hPa | 0 mm | - | - | - |
| 1778146348 | 13.89° C | 79% | 920.5 hPa | 0 mm | - | - | - |
| 1778146049 | 13.89° C | 79% | 1038.3 hPa | 0 mm | - | - | - |
| 1778145748 | 13.89° C | 79% | 1022.8 hPa | 0 mm | - | - | - |
| 1778145507 | 13.89° C | 79% | 1094 hPa | 0 mm | - | - | - |
| 1778145448 | 13.89° C | 79% | 970.1 hPa | 0 mm | - | - | - |
| 1778145148 | 13.89° C | 80% | 1058.5 hPa | 0 mm | - | - | - |
| 1778144848 | 13.89° C | 80% | 1037 hPa | 0 mm | - | - | - |
| 1778144548 | 13.89° C | 79% | 953.7 hPa | 0 mm | - | - | - |
| 1778144248 | 14.44° C | 79% | 987.3 hPa | 0 mm | - | - | - |
| 1778143948 | 14.44° C | 80% | 997.8 hPa | 0 mm | - | - | - |
| 1778143648 | 14.44° C | 81% | 1055.4 hPa | 0 mm | - | - | - |
| 1778143527 | 13.89° C | 81% | 1039.7 hPa | 0 mm | - | - | - |
* Rain latest hour (hover to see other rain measurements)
** Current wind speed in m/s (hover to see current wind gust speed)